Time,TemperatureF,DewpointF,PressureIn,WindDirection,WindDirectionDegrees,WindSpeedMPH,WindSpeedGustMPH,Humidity,HourlyPrecipIn,Conditions,Clouds,dailyrainin,SoftwareType,DateUTC
2013-07-20 00:33:00,85.0,-99.9,29.79,South,170,3.0,11.0,-999,0.00,,,-99.99,,2013-07-20 04:33:00,
2013-07-20 00:44:00,85.0,-99.9,29.79,South,170,3.0,11.0,-999,0.00,,,-99.99,,2013-07-20 04:44:00,
2013-07-20 00:52:00,85.0,-99.9,29.79,South,170,3.0,11.0,-999,0.00,,,-99.99,,2013-07-20 04:52:00,
2013-07-20 01:52:00,83.0,-99.9,29.80,SW,216,-999.0,5.0,-999,0.00,,,-99.99,,2013-07-20 05:52:00,
2013-07-20 02:32:00,82.0,-99.9,29.81,SSE,165,-999.0,7.0,-999,0.00,,,-99.99,,2013-07-20 06:32:00,
2013-07-20 02:43:00,82.0,-99.9,29.81,SSE,165,-999.0,7.0,-999,0.00,,,-99.99,,2013-07-20 06:43:00,
2013-07-20 02:52:00,82.0,-99.9,29.81,SSE,165,-999.0,7.0,-999,0.00,,,-99.99,,2013-07-20 06:52:00,
2013-07-20 02:53:00,81.0,-99.9,29.78,WSW,253,-999.0,9.0,-999,0.00,,,-99.99,,2013-07-20 06:53:00,
2013-07-20 03:33:00,81.0,-99.9,29.78,WSW,253,-999.0,9.0,-999,0.00,,,-99.99,,2013-07-20 07:33:00,
2013-07-20 03:44:00,81.0,-99.9,29.78,WSW,253,-999.0,9.0,-999,0.00,,,-99.99,,2013-07-20 07:44:00,
2013-07-20 04:32:00,80.0,-99.9,29.77,SSW,200,5.0,7.0,-999,0.00,,,-99.99,,2013-07-20 08:32:00,
2013-07-20 04:44:00,80.0,-99.9,29.77,SSW,200,5.0,7.0,-999,0.00,,,-99.99,,2013-07-20 08:44:00,
2013-07-20 04:52:00,80.0,-99.9,29.77,SSW,200,5.0,7.0,-999,0.00,,,-99.99,,2013-07-20 08:52:00,
2013-07-20 04:53:00,80.0,-99.9,29.76,SSW,193,3.0,8.0,-999,0.00,,,-99.99,,2013-07-20 08:53:00,
2013-07-20 05:33:00,80.0,-99.9,29.76,SSW,193,3.0,8.0,-999,0.00,,,-99.99,,2013-07-20 09:33:00,
2013-07-20 05:43:00,80.0,-99.9,29.76,SSW,193,3.0,8.0,-999,0.00,,,-99.99,,2013-07-20 09:43:00,
2013-07-20 06:32:00,79.0,-99.9,29.78,SSW,199,5.0,13.0,-999,0.00,,,-99.99,,2013-07-20 10:32:00,
2013-07-20 06:42:00,79.0,-99.9,29.78,SSW,199,5.0,13.0,-999,0.00,,,-99.99,,2013-07-20 10:42:00,
2013-07-20 06:52:00,79.0,-99.9,29.78,SSW,199,5.0,13.0,-999,0.00,,,-99.99,,2013-07-20 10:52:00,
2013-07-20 07:32:00,78.0,-99.9,29.79,SW,236,4.0,9.0,-999,0.00,,,-99.99,,2013-07-20 11:32:00,
2013-07-20 07:43:00,78.0,-99.9,29.79,SW,236,4.0,9.0,-999,0.00,,,-99.99,,2013-07-20 11:43:00,
2013-07-20 07:52:00,78.0,-99.9,29.79,SW,236,4.0,9.0,-999,0.00,,,-99.99,,2013-07-20 11:52:00,
2013-07-20 08:52:00,79.0,-99.9,29.81,SW,235,-999.0,11.0,-999,0.00,,,-99.99,,2013-07-20 12:52:00,
2013-07-20 08:53:00,81.0,-99.9,29.78,South,172,-999.0,9.0,-999,0.00,,,-99.99,,2013-07-20 12:53:00,
2013-07-20 09:32:00,81.0,-99.9,29.78,South,172,-999.0,9.0,-999,0.00,,,-99.99,,2013-07-20 13:32:00,
2013-07-20 09:43:00,81.0,-99.9,29.78,South,172,-999.0,9.0,-999,0.00,,,-99.99,,2013-07-20 13:43:00,
2013-07-20 09:53:00,84.0,-99.9,29.78,NW,308,2.0,11.0,-999,0.00,,,-99.99,,2013-07-20 13:53:00,
2013-07-20 10:32:00,84.0,-99.9,29.78,NW,308,2.0,11.0,-999,0.00,,,-99.99,,2013-07-20 14:32:00,
2013-07-20 10:43:00,84.0,-99.9,29.78,NW,308,2.0,11.0,-999,0.00,,,-99.99,,2013-07-20 14:43:00,
2013-07-20 10:53:00,87.0,-99.9,29.78,WNW,283,4.0,8.0,-999,0.00,,,-99.99,,2013-07-20 14:53:00,
2013-07-20 11:33:00,87.0,-99.9,29.78,WNW,283,4.0,8.0,-999,0.00,,,-99.99,,2013-07-20 15:33:00,
2013-07-20 11:44:00,87.0,-99.9,29.78,WNW,283,4.0,8.0,-999,0.00,,,-99.99,,2013-07-20 15:44:00,
2013-07-20 12:32:00,88.0,-99.9,29.75,West,263,6.0,8.0,-999,0.00,,,-99.99,,2013-07-20 16:32:00,
2013-07-20 12:44:00,88.0,-99.9,29.75,West,263,6.0,8.0,-999,0.00,,,-99.99,,2013-07-20 16:44:00,
2013-07-20 12:52:00,88.0,-99.9,29.75,West,263,6.0,8.0,-999,0.00,,,-99.99,,2013-07-20 16:52:00,
2013-07-20 12:53:00,90.0,-99.9,29.74,WSW,258,7.0,12.0,-999,0.00,,,-99.99,,2013-07-20 16:53:00,
2013-07-20 13:32:00,90.0,-99.9,29.74,WSW,258,7.0,12.0,-999,0.00,,,-99.99,,2013-07-20 17:32:00,
2013-07-20 13:43:00,90.0,-99.9,29.74,WSW,258,7.0,12.0,-999,0.00,,,-99.99,,2013-07-20 17:43:00,
2013-07-20 13:53:00,88.0,-99.9,29.74,SE,140,9.0,13.0,-999,0.00,,,-99.99,,2013-07-20 17:53:00,
2013-07-20 14:38:00,88.0,-99.9,29.74,SE,140,9.0,13.0,-999,0.00,,,-99.99,,2013-07-20 18:38:00,
2013-07-20 14:47:00,88.0,-99.9,29.74,SE,140,9.0,13.0,-999,0.00,,,-99.99,,2013-07-20 18:47:00,
2013-07-20 14:53:00,93.0,-99.9,29.74,SSW,213,-999.0,15.0,-999,0.00,,,-99.99,,2013-07-20 18:53:00,
2013-07-20 15:36:00,93.0,-99.9,29.74,SSW,213,-999.0,15.0,-999,0.00,,,-99.99,,2013-07-20 19:36:00,
2013-07-20 15:45:00,93.0,-99.9,29.74,SSW,213,-999.0,15.0,-999,0.00,,,-99.99,,2013-07-20 19:45:00,
2013-07-20 15:53:00,94.0,-99.9,29.72,West,262,3.0,10.0,-999,0.00,,,-99.99,,2013-07-20 19:53:00,
2013-07-20 16:35:00,94.0,-99.9,29.72,West,262,3.0,10.0,-999,0.00,,,-99.99,,2013-07-20 20:35:00,
2013-07-20 16:47:00,94.0,-99.9,29.72,West,262,3.0,10.0,-999,0.00,,,-99.99,,2013-07-20 20:47:00,
2013-07-20 16:53:00,94.0,-99.9,29.72,West,281,8.0,16.0,-999,0.00,,,-99.99,,2013-07-20 20:53:00,
2013-07-20 17:36:00,94.0,-99.9,29.72,West,281,8.0,16.0,-999,0.00,,,-99.99,,2013-07-20 21:36:00,
2013-07-20 17:49:00,94.0,-99.9,29.72,West,281,8.0,16.0,-999,0.00,,,-99.99,,2013-07-20 21:49:00,
2013-07-20 17:53:00,86.0,-99.9,29.74,WSW,248,3.0,11.0,-999,0.00,,,-99.99,,2013-07-20 21:53:00,
2013-07-20 18:38:00,86.0,-99.9,29.74,WSW,248,3.0,11.0,-999,0.00,,,-99.99,,2013-07-20 22:38:00,
2013-07-20 18:51:00,86.0,-99.9,29.74,WSW,248,3.0,11.0,-999,0.00,,,-99.99,,2013-07-20 22:51:00,
2013-07-20 19:40:00,84.0,-99.9,29.74,WSW,252,3.0,5.0,-999,0.00,,,-99.99,,2013-07-20 23:40:00,
2013-07-20 19:47:00,84.0,-99.9,29.74,WSW,252,3.0,5.0,-999,0.00,,,-99.99,,2013-07-20 23:47:00,
2013-07-20 21:38:00,82.0,-99.9,29.78,WNW,282,-999.0,-999.0,-999,0.00,,,-99.99,,2013-07-21 01:38:00,
2013-07-20 22:39:00,81.0,-99.9,29.80,WNW,296,-999.0,-999.0,-999,0.00,,,-99.99,,2013-07-21 02:39:00,
2013-07-20 22:47:00,81.0,-99.9,29.80,WNW,296,-999.0,-999.0,-999,0.00,,,-99.99,,2013-07-21 02:47:00,
2013-07-20 22:53:00,80.0,-99.9,29.81,NNW,335,-999.0,3.0,-999,0.00,,,-99.99,,2013-07-21 02:53:00,
2013-07-20 23:37:00,80.0,-99.9,29.81,NNW,335,-999.0,3.0,-999,0.00,,,-99.99,,2013-07-21 03:37:00,
2013-07-20 23:47:00,80.0,-99.9,29.81,NNW,335,-999.0,3.0,-999,0.00,,,-99.99,,2013-07-21 03:47:00,
2013-07-20 23:53:00,79.0,-99.9,29.83,NNW,335,-999.0,-999.0,-999,0.00,,,-99.99,,2013-07-21 03:53:00,